Retour au catalogue

STARLINK-32625

ActifCommunicationsVLEO
NORAD 62154·PAYLOAD·🇺🇸 United States

Lancé Nov 30, 2024 depuis Cape Canaveral Space Force Station

Loading…

Prochains Passages (prochaines 24 heures)

TLE

FraisSource: CelesTrak SupGP

Époque: Sep 14, 2026, 21:44 UTC

1 62154C 24224R   26257.90604167 -.00052796  00000+0 -19119-2 0  2577
2 62154  43.0004 169.8104 0001347 263.7938 134.4619 15.27611611    13

Suivez STARLINK-32625 en temps réel avec AllMySat

Download on the App Store